Year,Month,Day,Hour,Minute,Value (Times are PST for temperature in C)
2021,04,02,10,31,6.80
2021,04,02,10,32,6.80
2021,04,02,10,33,6.80
2021,04,02,10,34,6.80
2021,04,02,10,35,6.90
2021,04,02,10,36,6.90
2021,04,02,10,37,6.90
2021,04,02,10,38,6.90
2021,04,02,10,39,6.90
2021,04,02,10,40,6.90
2021,04,02,10,41,6.90
2021,04,02,10,42,6.90
2021,04,02,10,43,6.90
2021,04,02,10,44,6.90
2021,04,02,10,45,7.00
2021,04,02,10,46,7.10
2021,04,02,10,47,7.10
2021,04,02,10,48,7.20
2021,04,02,10,49,7.20
2021,04,02,10,50,7.30
2021,04,02,10,51,7.30
2021,04,02,10,52,7.30
2021,04,02,10,53,7.40
2021,04,02,10,54,7.40
2021,04,02,10,55,7.50
2021,04,02,10,56,7.60
2021,04,02,10,57,7.60
2021,04,02,10,58,7.60
2021,04,02,10,59,7.70
2021,04,02,11,00,7.70
2021,04,02,11,01,7.70
2021,04,02,11,02,7.80
2021,04,02,11,03,7.80
2021,04,02,11,04,7.80
2021,04,02,11,05,7.80
2021,04,02,11,06,7.80
2021,04,02,11,07,7.90
2021,04,02,11,08,8.00
2021,04,02,11,09,8.00
2021,04,02,11,10,8.00
2021,04,02,11,11,8.00
2021,04,02,11,12,8.00
2021,04,02,11,13,8.00
2021,04,02,11,14,7.90
2021,04,02,11,15,7.90
2021,04,02,11,16,8.00
2021,04,02,11,17,8.00
2021,04,02,11,18,8.00
2021,04,02,11,19,8.10
2021,04,02,11,20,8.10
2021,04,02,11,21,8.10
2021,04,02,11,22,8.10
2021,04,02,11,23,8.10
2021,04,02,11,24,8.10
2021,04,02,11,25,8.10
2021,04,02,11,26,8.10
2021,04,02,11,27,8.10
2021,04,02,11,28,8.10
2021,04,02,11,29,8.10
2021,04,02,11,30,8.20
2021,04,02,11,31,8.30
2021,04,02,11,32,8.40
2021,04,02,11,33,8.50
2021,04,02,11,34,8.50
2021,04,02,11,35,8.60
2021,04,02,11,36,8.60
2021,04,02,11,37,8.70
2021,04,02,11,38,8.70
2021,04,02,11,39,8.80
2021,04,02,11,40,8.80
2021,04,02,11,41,8.80
2021,04,02,11,42,8.90
2021,04,02,11,43,8.90
2021,04,02,11,44,8.90
2021,04,02,11,45,8.90
2021,04,02,11,46,9.00
2021,04,02,11,47,9.00
2021,04,02,11,48,9.10
2021,04,02,11,49,9.10
2021,04,02,11,50,9.10
2021,04,02,11,51,9.10
2021,04,02,11,52,9.10
2021,04,02,11,53,9.20
2021,04,02,11,54,9.20
2021,04,02,11,55,9.20
2021,04,02,11,56,9.20
2021,04,02,11,57,9.20
2021,04,02,11,58,9.10
2021,04,02,11,59,9.10
2021,04,02,12,00,9.20
2021,04,02,12,01,9.20
2021,04,02,12,02,9.20
2021,04,02,12,03,9.20
2021,04,02,12,04,9.20
2021,04,02,12,05,9.20
2021,04,02,12,06,9.30
2021,04,02,12,07,9.40
2021,04,02,12,08,9.40
2021,04,02,12,09,9.50
2021,04,02,12,10,9.50
2021,04,02,12,11,9.50
2021,04,02,12,12,9.50
2021,04,02,12,13,9.50
2021,04,02,12,14,9.70
2021,04,02,12,15,9.80
2021,04,02,12,16,9.80
2021,04,02,12,17,9.90
2021,04,02,12,18,9.90
2021,04,02,12,19,10.00
2021,04,02,12,20,10.10
2021,04,02,12,21,10.10
2021,04,02,12,22,10.10
2021,04,02,12,23,10.20
2021,04,02,12,24,10.20
2021,04,02,12,25,10.30
2021,04,02,12,26,10.30
2021,04,02,12,27,10.30
2021,04,02,12,28,10.20
2021,04,02,12,29,10.10
2021,04,02,12,30,10.10
2021,04,02,12,31,10.00
2021,04,02,12,32,10.00
2021,04,02,12,33,10.00
2021,04,02,12,34,9.90
2021,04,02,12,35,9.90
2021,04,02,12,36,9.90
2021,04,02,12,37,9.90
2021,04,02,12,38,9.90
2021,04,02,12,39,9.80
2021,04,02,12,40,9.80
2021,04,02,12,41,9.80
2021,04,02,12,42,9.80
2021,04,02,12,43,9.90
2021,04,02,12,44,9.90
2021,04,02,12,45,9.90
2021,04,02,12,46,9.90
2021,04,02,12,47,9.90
2021,04,02,12,48,9.90
2021,04,02,12,49,9.80
2021,04,02,12,50,9.90
2021,04,02,12,51,9.90
2021,04,02,12,52,10.00
2021,04,02,12,53,10.10
2021,04,02,12,54,10.20
2021,04,02,12,55,10.30
2021,04,02,12,56,10.30
2021,04,02,12,57,10.30
2021,04,02,12,58,10.40
2021,04,02,12,59,10.40
2021,04,02,13,00,10.40
2021,04,02,13,01,10.50
2021,04,02,13,02,10.60
2021,04,02,13,03,10.70
2021,04,02,13,04,10.80
2021,04,02,13,05,10.90
2021,04,02,13,06,10.90
2021,04,02,13,07,10.90
2021,04,02,13,08,10.90
2021,04,02,13,09,10.90
2021,04,02,13,10,11.00
2021,04,02,13,11,11.10
2021,04,02,13,12,11.10
2021,04,02,13,13,11.20
2021,04,02,13,14,11.20
2021,04,02,13,15,11.10
2021,04,02,13,16,11.00
2021,04,02,13,17,10.90
2021,04,02,13,18,10.80
2021,04,02,13,19,10.80
2021,04,02,13,20,10.70
2021,04,02,13,21,10.70
2021,04,02,13,22,10.70
2021,04,02,13,23,10.70
2021,04,02,13,24,10.70
2021,04,02,13,25,10.60
2021,04,02,13,26,10.60
2021,04,02,13,27,10.50
2021,04,02,13,28,10.50
2021,04,02,13,29,10.50
2021,04,02,13,30,10.60
2021,04,02,13,31,10.70
2021,04,02,13,32,10.70
2021,04,02,13,33,10.60
2021,04,02,13,34,10.60
2021,04,02,13,35,10.60
2021,04,02,13,36,10.60
2021,04,02,13,37,10.50
2021,04,02,13,38,10.60
2021,04,02,13,39,10.60
2021,04,02,13,40,10.60
2021,04,02,13,41,10.60
2021,04,02,13,42,10.70
2021,04,02,13,43,10.70
2021,04,02,13,44,10.70
2021,04,02,13,45,10.70
2021,04,02,13,46,10.80
2021,04,02,13,47,10.90
2021,04,02,13,48,10.90
2021,04,02,13,49,10.90
2021,04,02,13,50,10.90
2021,04,02,13,51,10.90
2021,04,02,13,52,10.80
2021,04,02,13,53,10.70
2021,04,02,13,54,10.70
2021,04,02,13,55,10.70
2021,04,02,13,56,10.70
2021,04,02,13,57,10.70
2021,04,02,13,58,10.70
2021,04,02,13,59,10.70
2021,04,02,14,00,10.70
2021,04,02,14,01,10.70
2021,04,02,14,02,10.70
2021,04,02,14,03,10.70
2021,04,02,14,04,10.70
2021,04,02,14,05,10.70
2021,04,02,14,06,10.70
2021,04,02,14,07,10.70
2021,04,02,14,08,10.70
2021,04,02,14,09,10.70
2021,04,02,14,10,10.70
2021,04,02,14,11,10.70
2021,04,02,14,12,10.70
2021,04,02,14,13,10.70
2021,04,02,14,14,10.70
2021,04,02,14,15,10.80
2021,04,02,14,16,10.80
2021,04,02,14,17,10.90
2021,04,02,14,18,11.00
2021,04,02,14,19,11.00
2021,04,02,14,20,11.10
2021,04,02,14,21,11.10
2021,04,02,14,22,11.10
2021,04,02,14,23,11.10
2021,04,02,14,24,11.10
2021,04,02,14,25,11.10
2021,04,02,14,26,11.20
2021,04,02,14,27,11.20
2021,04,02,14,28,11.10
2021,04,02,14,29,11.10
2021,04,02,14,30,11.10
2021,04,02,14,31,11.10
2021,04,02,14,32,11.10
2021,04,02,14,33,11.10
2021,04,02,14,34,11.20
2021,04,02,14,35,11.20
2021,04,02,14,36,11.20
2021,04,02,14,37,11.20
2021,04,02,14,38,11.20
2021,04,02,14,39,11.20
2021,04,02,14,40,11.30
2021,04,02,14,41,11.30
2021,04,02,14,42,11.40
2021,04,02,14,43,11.50
2021,04,02,14,44,11.50
2021,04,02,14,45,11.50
2021,04,02,14,46,11.50
2021,04,02,14,47,11.60
2021,04,02,14,48,11.60
2021,04,02,14,49,11.60
2021,04,02,14,50,11.70
2021,04,02,14,51,11.70
2021,04,02,14,52,11.70
2021,04,02,14,53,11.70
2021,04,02,14,54,11.60
2021,04,02,14,55,11.60
2021,04,02,14,56,11.60
2021,04,02,14,57,11.60
2021,04,02,14,58,11.50
2021,04,02,14,59,11.40
2021,04,02,15,00,11.30
2021,04,02,15,01,11.00
2021,04,02,15,02,10.70
2021,04,02,15,03,10.40
2021,04,02,15,04,10.10
2021,04,02,15,05,9.90
2021,04,02,15,06,9.70
2021,04,02,15,07,9.50
2021,04,02,15,08,9.40
2021,04,02,15,09,9.40
2021,04,02,15,10,9.30
2021,04,02,15,11,9.20
2021,04,02,15,12,9.20
2021,04,02,15,13,9.20
2021,04,02,15,14,9.20
2021,04,02,15,15,9.20
2021,04,02,15,16,9.20
2021,04,02,15,17,9.20
2021,04,02,15,18,9.20
2021,04,02,15,19,9.20
2021,04,02,15,20,9.20
2021,04,02,15,21,9.20
2021,04,02,15,22,9.30
2021,04,02,15,23,9.30
2021,04,02,15,24,9.30
2021,04,02,15,25,9.30
2021,04,02,15,26,9.30
2021,04,02,15,27,9.30
2021,04,02,15,28,9.20
2021,04,02,15,29,9.20
2021,04,02,15,30,9.20
2021,04,02,15,31,9.20
2021,04,02,15,32,9.20
2021,04,02,15,33,9.10
2021,04,02,15,34,9.10
2021,04,02,15,35,9.10
2021,04,02,15,36,9.10
2021,04,02,15,37,9.20
2021,04,02,15,38,9.20
2021,04,02,15,39,9.20
2021,04,02,15,40,9.20
2021,04,02,15,41,9.20
2021,04,02,15,42,9.20
2021,04,02,15,43,9.20
2021,04,02,15,44,9.10
2021,04,02,15,45,9.10
2021,04,02,15,46,9.10
2021,04,02,15,47,9.10
2021,04,02,15,48,9.10
2021,04,02,15,49,9.10
2021,04,02,15,50,9.10
2021,04,02,15,51,9.20
2021,04,02,15,52,9.10
2021,04,02,15,53,9.10
2021,04,02,15,54,9.10
2021,04,02,15,55,9.10
2021,04,02,15,56,9.10
2021,04,02,15,57,9.10
2021,04,02,15,58,9.20
2021,04,02,15,59,9.20
2021,04,02,16,00,9.20
2021,04,02,16,01,9.20
2021,04,02,16,02,9.20
2021,04,02,16,03,9.20
2021,04,02,16,04,9.20
2021,04,02,16,05,9.30
2021,04,02,16,06,9.30
2021,04,02,16,07,9.30
2021,04,02,16,08,9.40
2021,04,02,16,09,9.50
2021,04,02,16,10,9.50
2021,04,02,16,11,9.60
2021,04,02,16,12,9.60
2021,04,02,16,13,9.70
2021,04,02,16,14,9.70
2021,04,02,16,15,9.70
2021,04,02,16,16,9.80
2021,04,02,16,17,9.80
2021,04,02,16,18,9.90
2021,04,02,16,19,10.00
2021,04,02,16,20,10.00
2021,04,02,16,21,10.00
2021,04,02,16,22,10.00
2021,04,02,16,23,10.10
2021,04,02,16,24,10.10
2021,04,02,16,25,10.10
2021,04,02,16,26,10.00
2021,04,02,16,27,10.00
2021,04,02,16,28,9.90
2021,04,02,16,29,9.80
2021,04,02,16,30,9.80
2021,04,02,16,31,9.80
2021,04,02,16,32,9.80
2021,04,02,16,33,9.80
2021,04,02,16,34,9.80
2021,04,02,16,35,9.70
2021,04,02,16,36,9.70
2021,04,02,16,37,9.70
2021,04,02,16,38,9.70
2021,04,02,16,39,9.70
2021,04,02,16,40,9.70
2021,04,02,16,41,9.70
2021,04,02,16,42,9.70
2021,04,02,16,43,9.60
2021,04,02,16,44,9.60
2021,04,02,16,45,9.50
2021,04,02,16,46,9.40
2021,04,02,16,47,9.30
2021,04,02,16,48,9.20
2021,04,02,16,49,9.10
2021,04,02,16,50,9.10
2021,04,02,16,51,9.00
2021,04,02,16,52,8.90
2021,04,02,16,53,8.90
2021,04,02,16,54,8.80
2021,04,02,16,55,8.80
2021,04,02,16,56,8.80
2021,04,02,16,57,8.70
2021,04,02,16,58,8.80
2021,04,02,16,59,8.80
2021,04,02,17,00,8.80
2021,04,02,17,01,8.80
2021,04,02,17,02,8.80
2021,04,02,17,03,8.90
2021,04,02,17,04,8.90
2021,04,02,17,05,8.90
2021,04,02,17,06,8.90
2021,04,02,17,07,9.00
2021,04,02,17,08,9.00
2021,04,02,17,09,9.10
2021,04,02,17,10,9.20
2021,04,02,17,11,9.20
2021,04,02,17,12,9.20
2021,04,02,17,13,9.20
2021,04,02,17,14,9.10
2021,04,02,17,15,9.10
2021,04,02,17,16,9.10
2021,04,02,17,17,9.10
2021,04,02,17,18,9.20
2021,04,02,17,19,9.20
2021,04,02,17,20,9.30
2021,04,02,17,21,9.40
2021,04,02,17,22,9.40
2021,04,02,17,23,9.40
2021,04,02,17,24,9.40
2021,04,02,17,25,9.40
2021,04,02,17,26,9.40
2021,04,02,17,27,9.30
2021,04,02,17,28,9.30
2021,04,02,17,29,9.30
2021,04,02,17,30,9.30
2021,04,02,17,31,9.30
2021,04,02,17,32,9.40
2021,04,02,17,33,9.40
2021,04,02,17,34,9.40
2021,04,02,17,35,9.40
2021,04,02,17,36,9.30
2021,04,02,17,37,9.30
2021,04,02,17,38,9.30
2021,04,02,17,39,9.20
2021,04,02,17,40,9.20
2021,04,02,17,41,9.10
2021,04,02,17,42,9.10
2021,04,02,17,43,9.00
2021,04,02,17,44,8.90
2021,04,02,17,45,8.90
2021,04,02,17,46,8.90
2021,04,02,17,47,9.00
2021,04,02,17,48,9.10
2021,04,02,17,49,9.10
2021,04,02,17,50,9.10
2021,04,02,17,51,9.10
2021,04,02,17,52,9.10
2021,04,02,17,53,9.10
2021,04,02,17,54,9.10
2021,04,02,17,55,9.20
2021,04,02,17,56,9.20
2021,04,02,17,57,9.20
2021,04,02,17,58,9.20
2021,04,02,17,59,9.20
2021,04,02,18,00,9.20
2021,04,02,18,01,9.20
2021,04,02,18,02,9.30
2021,04,02,18,03,9.30
2021,04,02,18,04,9.30
2021,04,02,18,05,9.20
2021,04,02,18,06,9.30
2021,04,02,18,07,9.30
2021,04,02,18,08,9.30
2021,04,02,18,09,9.30
2021,04,02,18,10,9.30
2021,04,02,18,11,9.20
2021,04,02,18,12,9.10
2021,04,02,18,13,9.00
2021,04,02,18,14,9.00
2021,04,02,18,15,9.00
2021,04,02,18,16,9.00
2021,04,02,18,17,9.00
2021,04,02,18,18,9.00
2021,04,02,18,19,9.00
2021,04,02,18,20,9.00
2021,04,02,18,21,9.10
2021,04,02,18,22,9.10
2021,04,02,18,23,9.10
2021,04,02,18,24,9.20
2021,04,02,18,25,9.20
2021,04,02,18,26,9.30
2021,04,02,18,27,9.30
2021,04,02,18,28,9.40
2021,04,02,18,29,9.50
2021,04,02,18,30,9.50
2021,04,02,18,31,9.60
2021,04,02,18,32,9.70
2021,04,02,18,33,9.80
2021,04,02,18,34,9.90
2021,04,02,18,35,10.00
2021,04,02,18,36,10.00
2021,04,02,18,37,10.10
2021,04,02,18,38,10.20
2021,04,02,18,39,10.20
2021,04,02,18,40,10.20
2021,04,02,18,41,10.30
2021,04,02,18,42,10.30
2021,04,02,18,43,10.30
2021,04,02,18,44,10.30
2021,04,02,18,45,10.30
2021,04,02,18,46,10.30
2021,04,02,18,47,10.30
2021,04,02,18,48,10.30
2021,04,02,18,49,10.30
2021,04,02,18,50,10.30
2021,04,02,18,51,10.30
2021,04,02,18,52,10.30
2021,04,02,18,53,10.30
2021,04,02,18,54,10.30
2021,04,02,18,55,10.30
2021,04,02,18,56,10.30
2021,04,02,18,57,10.30
2021,04,02,18,58,10.30
